Wind_Speed
15 16 17 17 17 17 18 18 18 17 16 17 17 17 17 17 17 17 17 16 17 17 17 17 17 16 16 16 16 16 16 16 16 16 16 15 15 16
16 16 16 17 17 17 17 18 18 18 18 18 18 18 18 17 16 17 17 17 18 18 18 17 17 17 17 17 17 18 17 17 16 16 16 15 15 15
17 17 17 17 17 18 18 18 18 18 18 18 18 18 18 18 18 18 18 18 18 19 19 19 18 18 18 18 18 18 17 17 17 17 16 15 15 15
18 18 18 18 18 18 19 19 19 18 19 19 19 19 19 19 18 19 19 19 20 20 19 19 19 19 19 19 18 18 18 18 18 18 18 17 16 17
19 19 19 19 19 19 20 20 20 19 19 19 19 18 19 19 19 19 20 20 21 21 21 20 20 20 20 19 19 19 19 19 19 19 19 18 18 18
20 20 20 20 20 20 20 21 21 21 20 19 19 19 19 19 20 20 20 21 22 22 22 21 21 20 20 20 20 20 20 20 20 20 20 20 20 20
21 21 21 21 21 21 20 21 21 21 21 20 20 20 20 21 21 21 21 22 22 22 23 23 22 22 21 21 21 21 21 21 21 21 21 22 22 22
21 21 22 22 21 21 20 20 21 21 21 21 21 21 21 22 22 22 22 22 22 23 23 23 23 23 22 22 22 22 22 22 22 22 23 23 23 24
21 21 21 22 22 22 22 22 22 22 22 22 22 22 23 23 23 23 23 23 23 24 24 23 24 23 23 23 23 23 23 23 23 24 25 25 26 26
21 21 21 22 23 23 23 23 23 23 23 23 23 23 24 24 24 24 24 24 24 25 25 24 24 24 24 24 25 25 25 25 25 26 27 27 27 28
22 22 22 22 23 24 24 24 23 23 24 24 24 24 25 25 25 25 25 25 25 25 26 26 25 25 25 25 26 27 27 27 28 29 29 29 30 30
23 24 24 24 24 24 25 25 24 24 25 26 25 25 26 26 26 26 26 26 26 26 26 27 27 26 26 26 27 28 29 29 30 30 31 31 32 32
25 25 25 25 25 25 26 26 26 26 26 26 26 26 27 27 27 27 27 27 27 27 28 28 28 28 28 28 29 29 30 30 31 32 32 33 33 33
25 25 26 26 26 26 26 27 27 26 26 26 27 27 27 28 28 29 29 29 29 29 29 29 30 30 30 30 30 30 31 31 32 32 33 33 34 34
27 27 27 27 27 27 27 27 27 27 28 28 28 28 28 28 29 29 30 30 31 31 31 31 31 31 31 31 31 32 32 32 33 33 33 34 35 35
28 29 29 28 28 28 28 28 28 28 28 29 29 30 30 30 30 30 30 31 32 32 32 32 33 33 33 33 32 32 33 33 33 33 34 34 36 36
29 29 29 29 29 29 29 29 29 30 30 29 29 30 31 31 31 31 31 32 32 31 32 33 34 34 34 34 34 33 33 33 33 34 35 35 35 36
29 29 29 29 29 29 29 29 30 30 30 30 30 30 31 32 32 32 32 32 32 32 32 33 34 35 35 35 35 35 35 35 35 35 36 36 36 36
30 30 29 29 29 29 29 30 30 31 31 31 31 32 32 32 32 33 33 33 33 33 33 34 34 35 35 35 34 35 36 36 36 36 37 37 37 37
31 30 30 31 31 31 31 31 31 32 32 32 32 32 32 33 33 33 33 34 34 34 34 34 34 34 35 35 34 35 36 36 36 37 38 38 38 39
32 32 32 31 31 31 32 32 32 32 32 32 33 33 33 33 33 34 34 34 33 33 33 33 34 34 34 35 35 35 35 36 37 38 38 39 39 38
33 33 32 32 32 32 32 33 33 32 32 32 33 33 33 33 34 34 34 34 33 33 34 34 34 34 35 35 36 36 36 37 38 39 39 40 39 38
33 33 32 32 32 32 32 32 33 32 32 33 34 34 34 34 34 33 33 33 33 34 34 35 35 35 36 36 36 36 37 37 38 39 39 39 39 39
Wind_Direction
277 276 275 275 275 277 279 281 281 279 279 280 280 278 276 275 273 272 273 274 275 276 277 277 279 280 280 280 281 281 280 277 276 275 274 274 274 274
280 279 277 275 274 275 277 280 281 279 278 278 278 276 275 274 274 274 272 272 273 275 276 277 278 278 279 279 279 279 279 277 274 273 272 273 275 275
280 279 278 276 275 274 277 279 280 280 279 279 277 275 274 273 274 275 274 273 274 274 275 275 275 276 279 280 280 279 277 276 274 272 272 272 275 275
277 278 278 276 276 274 275 277 279 280 280 279 277 276 275 272 272 274 274 273 273 274 275 275 274 275 278 279 279 278 276 274 273 273 271 272 274 275
277 277 278 278 279 277 275 276 277 278 279 278 277 277 276 273 272 274 275 274 273 274 273 274 274 275 276 278 278 277 275 274 274 274 273 273 273 274
277 277 278 277 279 279 277 274 275 276 277 277 276 277 276 274 273 274 275 274 273 273 273 274 274 275 276 276 276 275 275 274 274 273 272 273 274 275
277 276 276 277 279 280 277 274 273 273 275 276 276 276 276 276 276 276 276 275 274 274 273 274 274 274 276 277 277 277 274 274 274 274 272 273 273 274
277 275 276 278 278 280 277 276 275 273 272 274 275 275 276 277 277 278 278 277 275 274 274 274 273 273 275 276 277 278 277 275 274 274 273 273 274 276
277 276 276 277 276 277 277 277 277 274 273 273 275 276 276 277 277 277 277 276 274 273 273 274 272 272 274 276 277 277 277 278 277 276 274 274 274 275
278 277 277 277 277 277 278 277 275 274 274 274 275 276 276 275 276 277 276 275 274 274 273 273 272 272 273 274 276 277 278 278 277 277 276 276 276 276
278 276 276 277 278 278 277 275 273 273 273 273 274 275 275 275 276 276 275 273 274 274 273 273 272 273 274 274 276 277 277 277 277 278 277 277 276 276
278 277 277 278 278 278 277 276 274 273 274 275 275 275 275 275 275 276 276 274 273 273 273 273 273 274 275 276 277 277 277 278 278 278 277 277 277 277
279 277 276 278 279 279 278 276 275 275 275 276 276 276 276 275 275 275 275 275 275 274 273 273 273 275 277 277 277 277 277 278 278 278 279 278 277 276
278 277 277 278 278 278 277 276 276 276 278 278 277 277 277 277 276 274 274 274 274 275 274 273 274 277 278 277 278 278 279 279 278 278 278 278 278 278
277 277 276 277 276 276 276 277 277 277 277 278 278 278 278 278 277 276 274 273 273 274 275 275 275 277 278 277 278 278 279 280 279 279 279 278 279 279
276 276 276 276 276 275 276 276 277 278 278 279 279 279 279 279 280 280 278 275 274 274 275 275 276 278 279 278 278 278 279 280 280 280 280 280 279 279
276 276 276 276 277 277 277 277 277 278 279 279 280 280 278 278 279 280 280 278 276 276 276 276 276 278 279 279 280 279 279 280 280 280 279 279 279 280
276 276 277 276 276 277 277 277 278 279 279 280 281 281 280 278 279 280 280 279 278 277 277 277 277 278 279 279 280 280 280 281 281 281 280 280 280 280
277 276 276 275 275 275 276 277 279 279 280 281 281 281 281 281 281 281 280 279 279 278 278 278 278 278 278 279 279 280 281 281 282 282 281 282 282 282
275 275 275 275 275 275 275 277 279 280 281 282 281 281 282 282 281 281 281 281 280 279 279 279 280 280 280 279 278 280 281 282 282 282 283 284 284 284
273 274 275 275 274 274 275 276 279 280 281 281 280 281 283 283 282 282 282 280 280 280 279 280 281 282 281 281 280 281 282 283 283 284 284 285 285 284
272 273 273 274 274 275 276 277 278 280 281 281 282 283 283 283 284 283 281 281 281 281 280 280 280 281 281 282 282 282 282 283 283 284 285 286 285 285
271 271 272 273 274 275 275 276 276 278 281 282 283 284 284 284 284 283 282 282 282 282 281 280 280 280 281 282 283 283 284 283 284 285 285 286 286 286
Height
5812 5812 5812 5812 5812 5812 5811 5811 5811 5811 5811 5811 5810 5810 5810 5810 5811 5811 5811 5812 5812 5812 5812 5813 5813 5813 5812 5812 5812 5812 5812 5812 5812 5812 5812 5812 5812 5812
5807 5807 5807 5807 5807 5807 5806 5806 5806 5806 5806 5806 5806 5806 5806 5806 5806 5806 5806 5807 5807 5807 5808 5808 5808 5808 5808 5808 5808 5808 5808 5807 5807 5807 5807 5807 5807 5807
5802 5802 5802 5802 5801 5801 5801 5801 5800 5801 5801 5801 5801 5801 5801 5801 5801 5801 5802 5802 5802 5802 5802 5803 5803 5803 5803 5803 5803 5803 5803 5803 5803 5803 5803 5803 5803 5803
5797 5797 5797 5796 5796 5796 5796 5796 5795 5795 5795 5795 5795 5795 5796 5796 5796 5796 5796 5797 5797 5797 5797 5797 5798 5798 5798 5798 5798 5798 5798 5798 5798 5798 5798 5798 5798 5798
5791 5791 5791 5791 5791 5790 5790 5790 5790 5789 5789 5789 5790 5790 5790 5790 5791 5791 5791 5791 5791 5791 5792 5792 5792 5792 5792 5792 5792 5792 5792 5792 5792 5792 5792 5792 5792 5792
5785 5785 5785 5785 5785 5784 5784 5784 5783 5783 5783 5783 5784 5784 5784 5784 5785 5785 5785 5785 5785 5785 5786 5786 5786 5786 5786 5786 5786 5786 5786 5786 5786 5786 5786 5786 5786 5786
5779 5778 5778 5778 5778 5778 5777 5777 5777 5777 5778 5778 5778 5778 5779 5778 5779 5779 5779 5779 5779 5779 5780 5780 5780 5780 5780 5780 5780 5780 5780 5780 5780 5780 5780 5780 5780 5780
5772 5772 5772 5772 5772 5771 5771 5771 5771 5771 5771 5772 5772 5772 5772 5772 5772 5772 5772 5773 5773 5773 5773 5773 5774 5774 5774 5774 5774 5774 5774 5774 5774 5774 5773 5773 5773 5773
5766 5766 5766 5765 5765 5765 5765 5765 5765 5764 5765 5765 5765 5765 5766 5766 5766 5766 5765 5766 5766 5766 5766 5767 5767 5767 5767 5767 5767 5767 5767 5767 5766 5766 5766 5766 5766 5765
5760 5759 5759 5759 5759 5758 5758 5758 5758 5758 5758 5758 5758 5758 5758 5758 5758 5758 5758 5759 5759 5759 5759 5759 5760 5760 5760 5760 5760 5760 5759 5759 5759 5758 5758 5758 5757 5757
5753 5753 5752 5752 5752 5751 5751 5751 5751 5751 5751 5751 5751 5751 5751 5750 5750 5750 5750 5751 5751 5751 5751 5752 5752 5752 5753 5753 5752 5752 5751 5751 5750 5750 5749 5749 5748 5748
5747 5746 5746 5745 5745 5744 5744 5743 5744 5744 5744 5743 5743 5743 5743 5743 5742 5742 5742 5743 5743 5744 5744 5744 5744 5744 5745 5745 5744 5743 5743 5742 5741 5741 5740 5739 5738 5737
5740 5739 5738 5738 5737 5737 5736 5736 5736 5736 5736 5736 5736 5735 5735 5735 5734 5734 5734 5734 5735 5735 5736 5735 5736 5735 5736 5736 5736 5735 5734 5733 5732 5731 5730 5729 5728 5727
5732 5731 5731 5730 5730 5729 5728 5728 5728 5728 5728 5728 5728 5727 5727 5726 5726 5725 5725 5725 5726 5726 5726 5726 5726 5726 5726 5726 5726 5725 5724 5723 5722 5721 5720 5718 5717 5716
5723 5723 5723 5722 5722 5721 5721 5720 5720 5720 5720 5720 5719 5719 5718 5718 5717 5717 5716 5716 5716 5716 5716 5716 5716 5716 5716 5716 5715 5715 5714 5713 5711 5710 5709 5708 5707 5705
5714 5714 5714 5714 5714 5713 5713 5712 5712 5711 5711 5711 5710 5710 5709 5709 5708 5707 5707 5706 5706 5707 5706 5706 5706 5706 5705 5705 5704 5704 5703 5702 5701 5700 5698 5697 5696 5694
5705 5705 5705 5705 5705 5704 5704 5704 5703 5703 5702 5702 5701 5700 5700 5699 5699 5698 5697 5696 5696 5697 5696 5696 5695 5695 5694 5694 5693 5693 5692 5691 5689 5688 5687 5686 5684 5683
5696 5696 5696 5696 5696 5696 5695 5695 5694 5693 5693 5692 5692 5691 5690 5689 5689 5688 5687 5686 5686 5686 5686 5685 5685 5684 5683 5683 5682 5681 5680 5679 5678 5676 5675 5674 5673 5672
5687 5687 5687 5687 5687 5686 5686 5685 5685 5684 5683 5683 5682 5681 5680 5679 5678 5677 5677 5676 5675 5675 5674 5674 5673 5672 5672 5672 5671 5669 5668 5667 5666 5665 5663 5662 5661 5660
5677 5677 5677 5677 5677 5677 5676 5676 5675 5674 5674 5673 5672 5671 5670 5669 5668 5667 5666 5665 5664 5664 5663 5662 5662 5661 5661 5660 5659 5658 5656 5655 5654 5653 5651 5649 5648 5646
5667 5667 5667 5667 5667 5667 5666 5666 5665 5664 5663 5662 5662 5660 5659 5658 5657 5656 5655 5654 5653 5652 5652 5651 5650 5649 5648 5647 5647 5647 5645 5643 5642 5640 5639 5637 5636 5634
5657 5657 5657 5657 5657 5656 5656 5655 5655 5654 5653 5652 5651 5650 5648 5647 5645 5644 5643 5642 5642 5641 5640 5640 5639 5637 5636 5636 5635 5634 5633 5631 5629 5627 5625 5624 5622 5621
5646 5646 5646 5646 5646 5646 5646 5645 5645 5644 5643 5642 5640 5639 5637 5636 5634 5633 5632 5631 5630 5629 5628 5628 5627 5626 5624 5623 5622 5621 5620 5619 5617 5615 5613 5611 5609 5607